Time,TemperatureF,DewpointF,PressureIn,WindDirection,WindDirectionDegrees,WindSpeedMPH,WindSpeedGustMPH,Humidity,HourlyPrecipIn,Conditions,Clouds,dailyrainin,SoftwareType,DateUTC
2013-08-06 00:00:00,68.0,60.0,30.04,WSW,257,7.0,7.0,76,0.00,,,-99.99,,2013-08-06 04:00:00,
2013-08-06 00:33:00,68.0,60.0,30.04,WSW,257,7.0,7.0,76,0.00,,,-99.99,,2013-08-06 04:33:00,
2013-08-06 00:44:00,68.0,60.0,30.04,WSW,257,7.0,7.0,76,0.00,,,-99.99,,2013-08-06 04:44:00,
2013-08-06 00:54:00,68.0,60.0,30.04,WSW,257,7.0,7.0,76,0.00,,,-99.99,,2013-08-06 04:54:00,
2013-08-06 01:00:00,67.0,59.0,30.04,SW,225,5.0,7.0,76,0.00,,,-99.99,,2013-08-06 05:00:00,
2013-08-06 01:32:00,67.0,59.0,30.04,SW,225,5.0,7.0,76,0.00,,,-99.99,,2013-08-06 05:32:00,
2013-08-06 01:43:00,67.0,59.0,30.04,SW,225,5.0,7.0,76,0.00,,,-99.99,,2013-08-06 05:43:00,
2013-08-06 01:53:00,67.0,59.0,30.04,SW,225,5.0,7.0,76,0.00,,,-99.99,,2013-08-06 05:53:00,
2013-08-06 02:00:00,65.0,59.0,30.05,SW,229,5.0,6.0,80,0.00,,,-99.99,,2013-08-06 06:00:00,
2013-08-06 02:32:00,65.0,59.0,30.05,SW,229,5.0,6.0,80,0.00,,,-99.99,,2013-08-06 06:32:00,
2013-08-06 02:43:00,65.0,59.0,30.05,SW,229,5.0,6.0,80,0.00,,,-99.99,,2013-08-06 06:43:00,
2013-08-06 02:52:00,65.0,59.0,30.05,SW,229,5.0,6.0,80,0.00,,,-99.99,,2013-08-06 06:52:00,
2013-08-06 03:00:00,65.0,58.0,30.04,West,275,4.0,6.0,79,0.00,,,-99.99,,2013-08-06 07:00:00,
2013-08-06 03:32:00,65.0,58.0,30.04,West,275,4.0,6.0,79,0.00,,,-99.99,,2013-08-06 07:32:00,
2013-08-06 03:44:00,65.0,58.0,30.04,West,275,4.0,6.0,79,0.00,,,-99.99,,2013-08-06 07:44:00,
2013-08-06 03:53:00,65.0,58.0,30.04,West,275,4.0,6.0,79,0.00,,,-99.99,,2013-08-06 07:53:00,
2013-08-06 04:00:00,64.0,57.0,30.05,WSW,247,4.0,5.0,76,0.00,,,-99.99,,2013-08-06 08:00:00,
2013-08-06 04:33:00,64.0,57.0,30.05,WSW,247,4.0,5.0,76,0.00,,,-99.99,,2013-08-06 08:33:00,
2013-08-06 04:43:00,64.0,57.0,30.05,WSW,247,4.0,5.0,76,0.00,,,-99.99,,2013-08-06 08:43:00,
2013-08-06 04:52:00,64.0,57.0,30.05,WSW,247,4.0,5.0,76,0.00,,,-99.99,,2013-08-06 08:52:00,
2013-08-06 05:00:00,63.0,54.0,30.05,WSW,248,4.0,-999.0,73,-99.99,,,-99.99,,2013-08-06 09:00:00,
2013-08-06 05:33:00,63.0,54.0,30.05,WSW,248,4.0,-999.0,73,-99.99,,,-99.99,,2013-08-06 09:33:00,
2013-08-06 05:43:00,63.0,54.0,30.05,WSW,248,4.0,-999.0,73,-99.99,,,-99.99,,2013-08-06 09:43:00,
2013-08-06 05:52:00,63.0,54.0,30.05,WSW,248,4.0,-999.0,73,-99.99,,,-99.99,,2013-08-06 09:52:00,
2013-08-06 06:00:00,62.0,55.0,30.06,West,263,6.0,6.0,78,0.00,,,-99.99,,2013-08-06 10:00:00,
2013-08-06 06:32:00,62.0,55.0,30.06,West,263,6.0,6.0,78,0.00,,,-99.99,,2013-08-06 10:32:00,
2013-08-06 06:43:00,62.0,55.0,30.06,West,263,6.0,6.0,78,0.00,,,-99.99,,2013-08-06 10:43:00,
2013-08-06 06:53:00,62.0,55.0,30.06,West,263,6.0,6.0,78,0.00,,,-99.99,,2013-08-06 10:53:00,
2013-08-06 07:00:00,63.0,56.0,30.07,WNW,296,4.0,7.0,78,0.00,,,-99.99,,2013-08-06 11:00:00,
2013-08-06 07:32:00,63.0,56.0,30.07,WNW,296,4.0,7.0,78,0.00,,,-99.99,,2013-08-06 11:32:00,
2013-08-06 07:43:00,63.0,56.0,30.07,WNW,296,4.0,7.0,78,0.00,,,-99.99,,2013-08-06 11:43:00,
2013-08-06 07:53:00,63.0,56.0,30.07,WNW,296,4.0,7.0,78,0.00,,,-99.99,,2013-08-06 11:53:00,
2013-08-06 08:00:00,70.0,56.0,30.08,NNW,348,2.0,6.0,62,0.00,,,-99.99,,2013-08-06 12:00:00,
2013-08-06 08:32:00,70.0,56.0,30.08,NNW,348,2.0,6.0,62,0.00,,,-99.99,,2013-08-06 12:32:00,
2013-08-06 08:43:00,70.0,56.0,30.08,NNW,348,2.0,6.0,62,0.00,,,-99.99,,2013-08-06 12:43:00,
2013-08-06 08:52:00,70.0,56.0,30.08,NNW,348,2.0,6.0,62,0.00,,,-99.99,,2013-08-06 12:52:00,
2013-08-06 09:00:00,72.0,58.0,30.08,ENE,76,4.0,7.0,62,0.00,,,-99.99,,2013-08-06 13:00:00,
2013-08-06 09:32:00,72.0,58.0,30.08,ENE,76,4.0,7.0,62,0.00,,,-99.99,,2013-08-06 13:32:00,
2013-08-06 09:42:00,72.0,58.0,30.08,ENE,76,4.0,7.0,62,0.00,,,-99.99,,2013-08-06 13:42:00,
2013-08-06 09:53:00,72.0,58.0,30.08,ENE,76,4.0,7.0,62,0.00,,,-99.99,,2013-08-06 13:53:00,
2013-08-06 10:00:00,74.0,60.0,30.10,East,86,3.0,-999.0,61,-99.99,,,-99.99,,2013-08-06 14:00:00,
2013-08-06 10:32:00,74.0,60.0,30.10,East,86,3.0,-999.0,61,-99.99,,,-99.99,,2013-08-06 14:32:00,
2013-08-06 10:42:00,74.0,60.0,30.10,East,86,3.0,-999.0,61,-99.99,,,-99.99,,2013-08-06 14:42:00,
2013-08-06 10:53:00,74.0,60.0,30.10,East,86,3.0,-999.0,61,-99.99,,,-99.99,,2013-08-06 14:53:00,
2013-08-06 11:00:00,74.0,60.0,30.11,East,100,7.0,7.0,61,0.00,,,-99.99,,2013-08-06 15:00:00,
2013-08-06 11:44:00,74.0,60.0,30.11,East,100,7.0,7.0,61,0.00,,,-99.99,,2013-08-06 15:44:00,
2013-08-06 11:52:00,74.0,60.0,30.11,East,100,7.0,7.0,61,0.00,,,-99.99,,2013-08-06 15:52:00,
2013-08-06 12:00:00,77.0,61.0,30.11,SE,131,5.0,-999.0,58,-99.99,,,-99.99,,2013-08-06 16:00:00,
2013-08-06 12:32:00,77.0,61.0,30.11,SE,131,5.0,-999.0,58,-99.99,,,-99.99,,2013-08-06 16:32:00,
2013-08-06 12:43:00,77.0,61.0,30.11,SE,131,5.0,-999.0,58,-99.99,,,-99.99,,2013-08-06 16:43:00,
2013-08-06 12:52:00,77.0,61.0,30.11,SE,131,5.0,-999.0,58,-99.99,,,-99.99,,2013-08-06 16:52:00,
2013-08-06 13:00:00,77.0,58.0,30.13,SSE,147,7.0,-999.0,53,-99.99,,,-99.99,,2013-08-06 17:00:00,
2013-08-06 13:32:00,77.0,58.0,30.13,SSE,147,7.0,-999.0,53,-99.99,,,-99.99,,2013-08-06 17:32:00,
2013-08-06 13:44:00,77.0,58.0,30.13,SSE,147,7.0,-999.0,53,-99.99,,,-99.99,,2013-08-06 17:44:00,
2013-08-06 13:52:00,77.0,58.0,30.13,SSE,147,7.0,-999.0,53,-99.99,,,-99.99,,2013-08-06 17:52:00,
2013-08-06 15:00:00,78.0,59.0,30.11,SE,143,11.0,17.0,52,0.00,,,-99.99,,2013-08-06 19:00:00,
2013-08-06 15:32:00,78.0,59.0,30.11,SE,143,11.0,17.0,52,0.00,,,-99.99,,2013-08-06 19:32:00,
2013-08-06 15:42:00,78.0,59.0,30.11,SE,143,11.0,17.0,52,0.00,,,-99.99,,2013-08-06 19:42:00,
2013-08-06 15:52:00,78.0,59.0,30.11,SE,143,11.0,17.0,52,0.00,,,-99.99,,2013-08-06 19:52:00,
2013-08-06 16:00:00,77.0,60.0,30.10,SE,137,11.0,16.0,56,0.00,,,-99.99,,2013-08-06 20:00:00,
2013-08-06 16:44:00,77.0,60.0,30.10,SE,137,11.0,16.0,56,0.00,,,-99.99,,2013-08-06 20:44:00,
2013-08-06 16:52:00,77.0,60.0,30.10,SE,137,11.0,16.0,56,0.00,,,-99.99,,2013-08-06 20:52:00,
2013-08-06 17:00:00,76.0,60.0,30.11,South,170,9.0,17.0,59,0.00,,,-99.99,,2013-08-06 21:00:00,
2013-08-06 17:32:00,76.0,60.0,30.11,South,170,9.0,17.0,59,0.00,,,-99.99,,2013-08-06 21:32:00,
2013-08-06 17:43:00,76.0,60.0,30.11,South,170,9.0,17.0,59,0.00,,,-99.99,,2013-08-06 21:43:00,
2013-08-06 17:52:00,76.0,60.0,30.11,South,170,9.0,17.0,59,0.00,,,-99.99,,2013-08-06 21:52:00,
2013-08-06 18:00:00,75.0,59.0,30.10,SSE,164,13.0,-999.0,59,-99.99,,,-99.99,,2013-08-06 22:00:00,
2013-08-06 18:32:00,75.0,59.0,30.10,SSE,164,13.0,-999.0,59,-99.99,,,-99.99,,2013-08-06 22:32:00,
2013-08-06 18:43:00,75.0,59.0,30.10,SSE,164,13.0,-999.0,59,-99.99,,,-99.99,,2013-08-06 22:43:00,
2013-08-06 18:53:00,75.0,59.0,30.10,SSE,164,13.0,-999.0,59,-99.99,,,-99.99,,2013-08-06 22:53:00,
2013-08-06 19:00:00,73.0,61.0,30.12,SSE,156,9.0,14.0,67,0.00,,,-99.99,,2013-08-06 23:00:00,
2013-08-06 19:43:00,73.0,61.0,30.12,SSE,156,9.0,14.0,67,0.00,,,-99.99,,2013-08-06 23:43:00,
2013-08-06 19:52:00,73.0,61.0,30.12,SSE,156,9.0,14.0,67,0.00,,,-99.99,,2013-08-06 23:52:00,
2013-08-06 20:00:00,72.0,61.0,30.11,South,171,7.0,14.0,68,0.00,,,-99.99,,2013-08-07 00:00:00,
2013-08-06 20:32:00,72.0,61.0,30.11,South,171,7.0,14.0,68,0.00,,,-99.99,,2013-08-07 00:32:00,
2013-08-06 20:43:00,72.0,61.0,30.11,South,171,7.0,14.0,68,0.00,,,-99.99,,2013-08-07 00:43:00,
2013-08-06 20:52:00,72.0,61.0,30.11,South,171,7.0,14.0,68,0.00,,,-99.99,,2013-08-07 00:52:00,
2013-08-06 21:00:00,72.0,62.0,30.12,South,178,9.0,13.0,71,0.00,,,-99.99,,2013-08-07 01:00:00,
2013-08-06 21:32:00,72.0,62.0,30.12,South,178,9.0,13.0,71,0.00,,,-99.99,,2013-08-07 01:32:00,
2013-08-06 21:43:00,72.0,62.0,30.12,South,178,9.0,13.0,71,0.00,,,-99.99,,2013-08-07 01:43:00,
2013-08-06 21:53:00,72.0,62.0,30.12,South,178,9.0,13.0,71,0.00,,,-99.99,,2013-08-07 01:53:00,
2013-08-06 22:00:00,72.0,61.0,30.12,South,174,6.0,12.0,69,0.00,,,-99.99,,2013-08-07 02:00:00,
2013-08-06 22:33:00,72.0,61.0,30.12,South,174,6.0,12.0,69,0.00,,,-99.99,,2013-08-07 02:33:00,
2013-08-06 22:43:00,72.0,61.0,30.12,South,174,6.0,12.0,69,0.00,,,-99.99,,2013-08-07 02:43:00,
2013-08-06 22:53:00,72.0,61.0,30.12,South,174,6.0,12.0,69,0.00,,,-99.99,,2013-08-07 02:53:00,
2013-08-06 23:00:00,72.0,62.0,30.12,SSE,162,10.0,11.0,73,0.00,,,-99.99,,2013-08-07 03:00:00,
2013-08-06 23:32:00,72.0,62.0,30.12,SSE,162,10.0,11.0,73,0.00,,,-99.99,,2013-08-07 03:32:00,
2013-08-06 23:43:00,72.0,62.0,30.12,SSE,162,10.0,11.0,73,0.00,,,-99.99,,2013-08-07 03:43:00,
2013-08-06 23:52:00,72.0,62.0,30.12,SSE,162,10.0,11.0,73,0.00,,,-99.99,,2013-08-07 03:52:00,